{"data":{"norad_id":56926,"intl_designator":"2023-083BC","name":"STARLINK-5746","alt_names":[],"object_type":"PAYLOAD","status":"ACTIVE","operator":null,"country":"US","launch_date":"2023-06-12","launch_site_code":"AFETR","launch_vehicle":null,"mission":null,"orbit_class":"UNKNOWN","rcs_meters":null,"size_class":null,"mass_kg":null,"dimensions":null,"purposes":["comms"],"wikipedia_slug":null,"has_3d_model":false,"image_url":null,"decayed_at":null,"tle_current":{"epoch":"2026-09-20T21:41:17.131200Z","epoch_age_seconds":82769,"freshness":"FRESH","line1":"1 56926U 23083BC  26263.90367050 -.00001194  00000+0 -33908-4 0  9996","line2":"2 56926  43.0019  48.2043 0000788 258.1724 101.9039 15.27566942181651","mean_motion":15.27566942,"eccentricity":7.88e-5,"inclination_deg":43.0019,"raan_deg":48.2043,"arg_perigee_deg":258.1724,"mean_anomaly_deg":101.9039,"bstar":-3.3908e-5,"rev_number":18165,"period_min":94.267554527898,"perigee_km":482.54753212228,"apogee_km":483.62886121327,"semimajor_km":6861.2251966678,"source":"CELESTRAK","updated_at":"2026-09-21T09:00:33.547308Z"}}}